| time (UTC) | temp F | wind direction | speed MPH | gust MPH | rain 1hr in | rain 24hr in | rain mn in | humidity % | barometer mb |
| 20260503211556 | 61 | 15 | 7.0 | 20.0 | 0.00 | 0.00 | 0.00 | 28 | 1013.8 |
| 20260503210047 | 61 | 18 | 7.0 | 20.0 | 0.00 | 0.00 | 0.00 | 27 | 1013.9 |
| 20260503204555 | 61 | 15 | 6.0 | 14.0 | 0.00 | 0.00 | 0.00 | 27 | 1013.8 |
| 20260503203051 | 61 | 21 | 9.0 | 19.0 | 0.00 | 0.00 | 0.00 | 27 | 1014.0 |
| 20260503201547 | 61 | 19 | 8.0 | 20.0 | 0.00 | 0.00 | 0.00 | 27 | 1014.0 |
| 20260503200050 | 61 | 19 | 5.0 | 17.0 | 0.00 | 0.00 | 0.00 | 28 | 1014.2 |
| 20260503194549 | 60 | 19 | 5.0 | 16.0 | 0.00 | 0.00 | 0.00 | 26 | 1014.4 |
| 20260503193102 | 61 | 17 | 7.0 | 16.0 | 0.00 | 0.00 | 0.00 | 28 | 1014.5 |
| 20260503191550 | 60 | 15 | 2.0 | 15.0 | 0.00 | 0.00 | 0.00 | 30 | 1014.6 |
| 20260503184543 | 59 | 22 | 8.0 | 19.0 | 0.00 | 0.00 | 0.00 | 28 | 1015.1 |
| 20260503183057 | 60 | 15 | 4.0 | 18.0 | 0.00 | 0.00 | 0.00 | 29 | 1015.1 |
| 20260503181541 | 59 | 19 | 6.0 | 20.0 | 0.00 | 0.00 | 0.00 | 28 | 1015.2 |
| 20260503180056 | 58 | 17 | 5.0 | 16.0 | 0.00 | 0.00 | 0.00 | 28 | 1015.4 |
| 20260503174550 | 58 | 13 | 6.0 | 17.0 | 0.00 | 0.00 | 0.00 | 28 | 1015.5 |
| 20260503173103 | 57 | 19 | 5.0 | 15.0 | 0.00 | 0.00 | 0.00 | 29 | 1015.3 |
| 20260503171550 | 55 | 18 | 8.0 | 25.0 | 0.00 | 0.00 | 0.00 | 30 | 1015.8 |
| 20260503081550 | 41 | 132 | 4.0 | 11.0 | 0.00 | 0.00 | 0.00 | 61 | 1015.5 |
| 20260503071605 | 42 | 123 | 4.0 | 9.0 | 0.00 | 0.00 | 0.00 | 62 | 1015.0 |
| 20260503054547 | 42 | 125 | 0.0 | 5.0 | 0.00 | 0.00 | 0.00 | 67 | 1014.9 |
| 20260503053052 | 42 | 134 | 1.0 | 7.0 | 0.00 | 0.00 | 0.00 | 67 | 1015.1 |
| 20260503051556 | 42 | 142 | 1.0 | 9.0 | 0.00 | 0.00 | 0.00 | 67 | 1015.1 |
| 20260503050052 | 42 | 155 | 1.0 | 4.0 | 0.00 | 0.00 | 0.00 | 68 | 1015.1 |
| 20260503044544 | 42 | 135 | 1.0 | 4.0 | 0.00 | 0.00 | 0.00 | 68 | 1015.2 |
| 20260503043052 | 42 | 108 | 1.0 | 5.0 | 0.00 | 0.00 | 0.00 | 69 | 1015.2 |
| 20260503041541 | 41 | 166 | 0.0 | 3.0 | 0.00 | 0.00 | 0.00 | 70 | 1015.3 |
| 20260503040040 | 41 | 183 | 0.0 | 2.0 | 0.00 | 0.00 | 0.00 | 70 | 1015.3 |
| 20260503034549 | 42 | 0 | 0.0 | 1.0 | 0.00 | 0.00 | 0.00 | 69 | 1015.4 |
| 20260503033046 | 42 | 0 | 0.0 | 1.0 | 0.00 | 0.00 | 0.00 | 67 | 1015.2 |
| 20260503031544 | 43 | 0 | 0.0 | 1.0 | 0.00 | 0.00 | 0.00 | 65 | 1015.2 |
| 20260503030046 | 44 | 0 | 0.0 | 2.0 | 0.00 | 0.00 | 0.00 | 64 | 1015.5 |
| 20260503024557 | 45 | 0 | 0.0 | 1.0 | 0.00 | 0.00 | 0.00 | 61 | 1015.6 |
| 20260503023048 | 45 | 0 | 0.0 | 1.0 | 0.00 | 0.00 | 0.00 | 59 | 1015.5 |
| 20260503021551 | 46 | 0 | 1.0 | 4.0 | 0.00 | 0.00 | 0.00 | 55 | 1015.5 |
| 20260503020052 | 46 | 360 | 0.0 | 9.0 | 0.00 | 0.00 | 0.00 | 54 | 1015.5 |
| 20260503014620 | 46 | 360 | 1.0 | 3.0 | 0.00 | 0.00 | 0.00 | 55 | 1015.3 |
| 20260503013049 | 47 | 0 | 1.0 | 5.0 | 0.00 | 0.00 | 0.00 | 55 | 1015.1 |
| 20260503011601 | 47 | 360 | 2.0 | 8.0 | 0.00 | 0.00 | 0.00 | 56 | 1015.0 |
| 20260503010054 | 47 | 0 | 0.0 | 3.0 | 0.00 | 0.00 | 0.00 | 56 | 1014.6 |
| 20260503004559 | 48 | 360 | 0.0 | 5.0 | 0.00 | 0.00 | 0.00 | 53 | 1014.4 |
| 20260503003058 | 49 | 0 | 0.0 | 3.0 | 0.00 | 0.00 | 0.00 | 52 | 1014.1 |
| 20260503001544 | 49 | 360 | 2.0 | 5.0 | 0.00 | 0.00 | 0.00 | 51 | 1014.0 |
| 20260503000055 | 50 | 360 | 4.0 | 10.0 | 0.00 | 0.00 | 0.00 | 50 | 1013.8 |
| 20260502234552 | 50 | 360 | 2.0 | 11.0 | 0.00 | 0.00 | 0.00 | 48 | 1013.6 |
| 20260502233047 | 51 | 44 | 2.0 | 6.0 | 0.00 | 0.00 | 0.00 | 47 | 1013.4 |
| 20260502231549 | 52 | 57 | 3.0 | 7.0 | 0.00 | 0.00 | 0.00 | 44 | 1013.3 |
| 20260502230052 | 52 | 0 | 1.0 | 7.0 | 0.00 | 0.00 | 0.00 | 44 | 1013.2 |
| 20260502224604 | 53 | 43 | 1.0 | 6.0 | 0.00 | 0.00 | 0.00 | 43 | 1013.1 |
| 20260502223048 | 53 | 26 | 2.0 | 8.0 | 0.00 | 0.00 | 0.00 | 42 | 1013.0 |
| 20260502221552 | 54 | 61 | 1.0 | 5.0 | 0.00 | 0.00 | 0.00 | 42 | 1012.8 |
| 20260502220051 | 53 | 45 | 1.0 | 6.0 | 0.00 | 0.00 | 0.00 | 42 | 1012.9 |
| 20260502214552 | 53 | 47 | 1.0 | 10.0 | 0.00 | 0.00 | 0.00 | 41 | 1012.9 |
| 20260502213058 | 55 | 51 | 1.0 | 5.0 | 0.00 | 0.00 | 0.00 | 39 | 1012.9 |